Location: Newark
(43.4306°N, 0.3089°E)
Time: 14:32:36
(UTC+00:00)

A-11 Canister half - Pass Details

Date: 26 August 2019
Orbit: 1513 x 1686 km, 47.2° (Epoch: 18 September)

Event Time Altitude Azimuth Distance (km) Brightness Sun altitude
Rises 22:42:44 0° 295° (WNW) 4,776 12.2 -33.5°
Reaches altitude 10° 22:45:49 10° 292° (WNW) 3,813 11.5 -33.7°
Enters shadow 22:55:08 62° 221° (SW) 1,805 9.1 -34.3°
